User: anonymous
Location: Oshawa
(43.9000°N, 78.8670°W)
Time: 04:05:13
(UTC-04:00)
Language:

Iridium 98 - Orbit

View from above orbital plane
View from above orbital plane
View from above satellite
View from above satellite

Ground track
Ground track

The orbit data is extracted from the following two-line orbital elements,

1 27451U 02031B   14292.47588853  .00000348  00000-0  11724-3 0  5462
2 27451 086.3955 068.4219 0002351 114.5157 311.4044 14.34206837652022
Epoch (UTC): 19 October 2014 11:25:16
Eccentricity: 0.0002351
inclination: 86.3955°
perigee height: 776 km
apogee height: 779 km
right ascension of ascending node: 68.4219°
argument of perigee: 114.5157°
revolutions per day: 14.34206837
mean anomaly at epoch: 311.4044°
orbit number at epoch: 65202

The dashed part of the orbit path shows where the satellite is in the earth's shadow,  

DLR